Flag for Russia Weather past 2 weeks in Orenburg, Russia

Now
75 °F

Scattered clouds.


Feels Like: 77 °F
Forecast: 53 / 89 °F
Wind: 3 mph from Northwest

Location: Orenburg / Tsentralny

Current Time: Jul 29, 2015 at 12:17:46 PM

Latest Report: Jul 29, 2015 at 11:30 AM


Visibility: N/A

Pressure: 29.92 "Hg

Humidity: 39%

Dew point: 48 °F

Location of OrenburgLocation

Historic Weather in Orenburg — Graph

°F

Orenburg temperature yesterday

Maximum temperature yesterday: 81 °F (at 3:00 PM)
Minimum temperature yesterday: 50 °F (at 5:00 AM)
Average temperature yesterday: 68 °F

Past Weeks' High & Low Weather Summary

 TemperatureHumidityPressure
High91 °F (Jul 15, 3:00 PM)94% (Jul 17, 10:30 AM)29.92 "Hg (Jul 17, 10:30 AM)
Low48 °F (Jul 19, 4:30 AM)13% (Jul 15, 5:00 PM)29.59 "Hg (Jul 17, 3:30 PM)
Average68 °F57%29.80 "Hg
* Reported Jul 14 11:00 AM — Jul 29 11:00 AM, Orenburg, Weather by CustomWeather, © 2015

Note: Actual official high and low records may vary slightly from our data, if they occured in-between our weather recording intervals... More about our weather records

Advertising

Orenburg weather history for previous 24 hours

 ConditionsComfort  
Time TempWeatherWind HumidityBarometerVisibility
11:00 AM
Wed, Jul 29
75 °FScattered clouds.3 mph39%29.92 "HgN/A
10:30 AM75 °FScattered clouds.6 mph39%29.92 "HgN/A
10:00 AM73 °FPassing clouds.3 mph41%29.92 "HgN/A
9:30 AM72 °FPassing clouds.3 mph47%29.92 "HgN/A
8:30 AM68 °FClear.3 mph53%29.92 "HgN/A
8:00 AM64 °FClear.1 mph60%29.92 "HgN/A
7:30 AM61 °FClear.1 mph68%29.92 "HgN/A
7:00 AM59 °FClear.No wind77%29.92 "HgN/A
6:30 AM54 °FClear.No wind88%29.92 "HgN/A
5:30 AM54 °FClear.No wind88%29.89 "HgN/A
5:00 AM52 °FClear.1 mph88%29.89 "HgN/A
4:30 AM54 °FClear.No wind77%29.89 "HgN/A
4:00 AM54 °FClear.No wind77%29.89 "HgN/A
3:30 AM55 °FClear.No wind77%29.89 "HgN/A
2:00 AM57 °FClear.8 mph67%29.86 "HgN/A
1:30 AM59 °FClear.8 mph63%29.86 "HgN/A
1:00 AM61 °FClear.8 mph63%29.86 "HgN/A
12:30 AM61 °FClear.8 mph59%29.86 "HgN/A
12:00 AM61 °FClear.6 mph59%29.86 "HgN/A
11:30 PM
Tue, Jul 28
63 °FClear.8 mph56%29.86 "HgN/A
11:00 PM63 °FClear.6 mph56%29.86 "HgN/A
10:30 PM64 °FClear.8 mph52%29.86 "HgN/A
10:00 PM64 °FClear.8 mph52%29.86 "HgN/A
9:30 PM66 °FClear.8 mph49%29.86 "HgN/A
9:00 PM72 °FClear.6 mph38%29.86 "HgN/A
8:30 PM75 °FClear.8 mph31%29.83 "HgN/A
8:00 PM79 °FClear.10 mph28%29.83 "HgN/A
7:30 PM79 °FPassing clouds.10 mph26%29.83 "HgN/A
7:00 PM79 °FPassing clouds.10 mph26%29.83 "HgN/A
6:30 PM81 °FPassing clouds.8 mph24%29.83 "HgN/A
6:00 PM81 °FPassing clouds.13 mph23%29.83 "HgN/A
5:30 PM81 °FPassing clouds.13 mph24%29.83 "HgN/A
5:00 PM81 °FPassing clouds.10 mph24%29.83 "HgN/A
4:30 PM81 °FPassing clouds.10 mph24%29.86 "HgN/A
4:00 PM81 °FScattered clouds.13 mph23%29.86 "HgN/A
3:30 PM81 °FScattered clouds.13 mph24%29.86 "HgN/A
3:00 PM81 °FScattered clouds.13 mph26%29.86 "HgN/A
2:30 PM79 °FScattered clouds.13 mph28%29.86 "HgN/A
2:00 PM77 °FScattered clouds.13 mph32%29.86 "HgN/A
1:30 PM79 °FScattered clouds.13 mph30%29.86 "HgN/A
1:00 PM77 °FScattered clouds.13 mph32%29.89 "HgN/A
12:30 PM75 °FScattered clouds.15 mph34%29.89 "HgN/A
12:00 PM75 °FScattered clouds.13 mph34%29.89 "HgN/A
Weather by CustomWeather, © 2015

See weather overviewHow to use our weather pages